Other Surface Observations
Issued by NWS

Current Version | Previous Version | Text Only | Print | Product List | Glossary On
Versions: 1 2 3 4 5 6 7 8 9 10 11 12 13 14 15 16 17 18 19 20 21 22 23 24 25 26 27 28 29 30 31 32 33 34 35 36 37 38 39 40 41 42 43 44 45 46 47 48 49 50
000
SXUS52 KTAE 021219
OSOTAE
OSOTAE
North Florida/South Alabama/Southwest Georgia Weather Roundup
National Weather Service Tallahassee Florida
800 AM EDT SUN AUG 02 2015

Note: "fair" indicates few or no clouds below 12,000 feet with no
significant weather and/or obstructions to visibility.

!FLZ017-115-028-034-025-021300
...North Florida...

CITY           SKY/WX    TMP DP  RH WIND       PRES   REMARKS
TALLAHASSEE    CLOUDY    79  75  87 N7        29.83R
APALACHICOLA   CLOUDY    79  75  87 NW7       29.81S
PERRY          CLOUDY    76  76 100 E9        29.82S
CROSS CITY       N/A     76  75  97 SE3       29.84S
JACKSONVILLE   PTSUNNY   77  72  84 S8        29.89R
$$

!FLZ112-006-005-002-011-021300
...Florida Panhandle...

CITY           SKY/WX    TMP DP  RH WIND       PRES   REMARKS
MARIANNA       CLOUDY    75  75 100 NE8       29.86R
BONIFAY        FAIR      74  72  93 N5        29.88S
PANAMA CITY NW FAIR      76  73  91 N6        29.85R
TYNDALL AFB    SUNNY     75  72  91 N9        29.84S
TYND DRONE APT PTSUNNY   75  73  94 N14       29.83F
DE FUNIAK SPR  FAIR      74  73  95 NE6       29.89R
EGLIN AFB      MOSUNNY   75  73  92 N7        29.86R
DESTIN         SUNNY     78  74  87 NE7       29.86R
HURLBURT       SUNNY     76  72  88 NE6       29.85R
CRESTVIEW      SUNNY     76  73  91 NE3       29.89R
PENSACOLA      CLEAR     76  72  87 N7        29.86R
$$

!ALZ063-066-021300
...South Alabama...

CITY           SKY/WX    TMP DP  RH WIND       PRES   REMARKS
DOTHAN         PTSUNNY   74  73  97 N6        29.92R FOG
OZARK CAIRNS   SUNNY     74  73  94 N6        29.88R
FT RUCKER HELI MOSUNNY   75  72  90 CALM      29.88R
RUCKER HELI 3  FAIR      75  72  91 NE3       29.90S
RUCKER HELI 2  FAIR      75  75 100 N7        29.88R
FLORALA APT    SUNNY     74  72  93 NE3       29.91R
ANDALUSIA      SUNNY     79  72  79 N3        29.89R
TROY           SUNNY     74  73  97 CALM      29.90S
EUFALA         FAIR      76  74  93 CALM      29.89R
MOBILE         PTCLDY    74  68  81 CALM      29.89R
$$

!GAZ120>161-021300
...Southwest and South Central Georgia...

CITY           SKY/WX    TMP DP  RH WIND       PRES   REMARKS
THOMASVILLE    CLOUDY    75  75 100 E5        29.87R
BAINBRIDGE     CLOUDY    79  77  94 N5        29.87R
MOODY AFB      CLOUDY    75  72  88 E6        29.87R
VALDOSTA       CLOUDY    77  75  93 E5        29.87R
MOULTRIE       CLOUDY    77  73  88 CALM      29.88R
BLAKELY        CLOUDY    77  73  88 E3        29.88S FOG
ALBANY         CLOUDY    76  74  93 NE7       29.89S
TIFTON         CLOUDY    75  75  98 E3        29.88S
FITZGERALD     CLOUDY    78  76  96 CALM      29.92R
CORDELE        CLOUDY    77  76  98 NE5       29.91S FOG
AMERICUS       FOG       72  72 100 NE6       29.92S VSB 1/4
HOMERVILLE     CLOUDY    77  75  94 CALM      29.89R
$$

!GMZ750-755-770-775-021300
...Coastal and Buoy Obs...

STATION/POSITION TIME  TEMP    WIND        PRES    VSBY  WAVE
                       AIR SEA DIR/SP/G                  HT/PER
                 (UTC) (F)     (DEG/KT/KT) (MB)    (MI)  (FT/S)
KEATON BEACH     1200   80     160/  7/  9 1009.4R
CEDAR KEY        1200   81     220/ 15/ 21 1011.2S
C TOWER          1200   80     360/  7/  8 1009.5R
APALACHICOLA BUO 1150   79 84  190/ 16/ 19 1009.7R         5/ 7
PANAMA CITY BUOY 1150   81 86  330/ 14/ 16 1010.7R         4/ 7
MOBILE BUOY      1150   85 86  280/ 12/ 14 1011.5R         2/ 5
ORANGE BCH AL BU 1150   82 86   20/ 12/ 14 1010.3R         1/ 8
$$



USA.gov is the U.S. government's official web portal to all federal, state and local government web resources and services.